Location: Mount Nemo Observatory
(43.4112°N, 79.8736°W)
Time: 06:47:59
(UTC-05:00)

OTV 5 (USA 277) - Visible Passes

Search period start: 24 February 2018 00:00
Search period end: 06 March 2018 00:00
Orbit: 404 x 417 km, 43.0° (Epoch: 07 September)

Date Brightness Start Highest point End Pass type
(mag) Time Alt. Az. Time Alt. Az. Time Alt. Az.
24 Feb ? 05:14:44 42° SSE 05:14:44 42° SSE 05:17:53 10° E visible
25 Feb ? 04:26:04 14° E 04:26:04 14° E 04:26:44 10° E visible
25 Feb ? 05:58:49 21° WSW 06:00:52 79° S 06:04:10 10° E visible
26 Feb ? 05:10:07 63° SE 05:10:07 63° SE 05:13:06 10° E visible
27 Feb ? 04:21:23 15° E 04:21:23 15° E 04:22:02 10° E visible
27 Feb ? 05:54:08 23° W 05:56:03 85° S 05:59:21 10° E visible
28 Feb ? 05:05:23 66° E 05:05:23 66° E 05:08:17 10° E visible
01 Mar ? 04:16:38 14° E 04:16:38 14° E 04:17:13 10° E visible
01 Mar ? 05:49:24 24° W 05:51:12 70° SSW 05:54:29 10° ESE visible
02 Mar ? 05:00:41 59° ESE 05:00:41 59° ESE 05:03:27 10° E visible
03 Mar ? 04:12:00 13° E 04:12:00 13° E 04:12:24 10° E visible
03 Mar ? 05:44:46 25° WSW 05:46:18 44° SSW 05:49:27 10° SE visible
04 Mar ? 04:56:09 40° SE 04:56:09 40° SE 04:58:32 10° ESE visible
05 Mar ? 05:40:23 21° SW 05:41:16 24° SSW 05:43:58 10° SSE visible
